When you browse on this site, cookies collect data to enhance your experience and personalize the content and advertising you see.
Visit our Privacy Policy to learn more. By continuing to use the site, you agree to this use of cookies and data.
  • In Hungary
  • List of Countries
  • For 7 days
  • Water Temperature
  • Satellite Maps
  • Weather Map
  • News
  • Weather Widgets
  • user-avatar
    Login

    Hourly Weather Tskhinvali

    Today, 19 November, Monday

    Time Temperature Precipitation Wind Pressure Humidity
    00:00 +2°C° 0 mm 1 mps 685 mmHg 74%
    01:00 +2°C° 0 mm 1 mps 685 mmHg 70%
    02:00 +2°C° 0 mm 1 mps 685 mmHg 67%
    03:00 +2°C° 0 mm 1 mps 685 mmHg 63%
    04:00 +2°C° 0 mm 1 mps 685 mmHg 60%
    05:00 +2°C° 0 mm 1 mps 685 mmHg 57%
    06:00 +2°C° 0 mm 1 mps 685 mmHg 54%
    07:00 +3°C° 0 mm 1 mps 685 mmHg 52%
    08:00 +5°C° 0 mm 1 mps 685 mmHg 50%
    09:00 +7°C° 0 mm 1 mps 686 mmHg 46%
    10:00 +8°C° 0 mm 1 mps 685 mmHg 45%
    11:00 +8°C° 0 mm 2 mps 685 mmHg 45%
    12:00 +9°C° 0 mm 2 mps 685 mmHg 44%
    13:00 +9°C° 0 mm 2 mps 685 mmHg 46%
    14:00 +9°C° 0 mm 2 mps 685 mmHg 48%
    15:00 +9°C° 0 mm 2 mps 685 mmHg 49%
    16:00 +7°C° 0 mm 2 mps 685 mmHg 52%
    17:00 +5°C° 0 mm 2 mps 685 mmHg 55%
    18:00 +4°C° 0 mm 2 mps 685 mmHg 57%
    19:00 +4°C° 0 mm 2 mps 685 mmHg 57%
    20:00 +4°C° 0 mm 2 mps 685 mmHg 56%
    21:00 +3°C° 0 mm 2 mps 685 mmHg 56%
    22:00 +3°C° 0 mm 2 mps 685 mmHg 57%
    23:00 +3°C° 0 mm 2 mps 685 mmHg 58%

    Tomorrow, 20 November, Tuesday

    Time Temperature Precipitation Wind Pressure Humidity
    00:00 +3°C° 0 mm 2 mps 685 mmHg 59%
    01:00 +3°C° 0 mm 2 mps 684 mmHg 61%
    02:00 +4°C° 0 mm 1 mps 684 mmHg 63%
    03:00 +4°C° 0 mm 1 mps 684 mmHg 65%
    04:00 +4°C° 0 mm 1 mps 684 mmHg 67%
    05:00 +4°C° 0 mm 1 mps 684 mmHg 69%
    06:00 +4°C° 0 mm 1 mps 683 mmHg 71%
    07:00 +5°C° 0 mm 1 mps 683 mmHg 69%
    08:00 +7°C° 0 mm 1 mps 683 mmHg 66%
    09:00 +8°C° 0 mm 1 mps 684 mmHg 64%
    10:00 +9°C° 0 mm 1 mps 683 mmHg 61%
    11:00 +10°C° 0 mm 1 mps 683 mmHg 59%
    12:00 +10°C° 0 mm 2 mps 683 mmHg 57%
    13:00 +10°C° 0 mm 2 mps 683 mmHg 59%
    14:00 +9°C° 0 mm 3 mps 683 mmHg 61%
    15:00 +9°C° 0 mm 3 mps 682 mmHg 63%
    16:00 +8°C° 0 mm 3 mps 682 mmHg 68%
    17:00 +7°C° 0 mm 2 mps 682 mmHg 74%
    18:00 +6°C° 0 mm 2 mps 682 mmHg 80%
    19:00 +6°C° 0.1 mm 2 mps 682 mmHg 80%
    20:00 +6°C° 0.1 mm 2 mps 682 mmHg 81%
    21:00 +6°C° 0.1 mm 2 mps 682 mmHg 82%
    22:00 +6°C° 0.2 mm 2 mps 682 mmHg 84%
    23:00 +5°C° 0.2 mm 3 mps 682 mmHg 86%

    Day after tomorrow, 21 November, Wednesday

    Time Temperature Precipitation Wind Pressure Humidity
    00:00 +5°C° 0.2 mm 3 mps 682 mmHg 89%
    01:00 +5°C° 0.1 mm 3 mps 682 mmHg 89%
    02:00 +5°C° 0.1 mm 3 mps 682 mmHg 90%
    03:00 +5°C° 0.1 mm 3 mps 682 mmHg 91%
    04:00 +4°C° 0 mm 3 mps 682 mmHg 91%
    05:00 +4°C° 0 mm 3 mps 682 mmHg 91%
    06:00 +4°C° 0 mm 3 mps 682 mmHg 91%
    07:00 +4°C° 0 mm 3 mps 682 mmHg 88%
    08:00 +5°C° 0 mm 3 mps 682 mmHg 84%
    09:00 +5°C° 0 mm 3 mps 682 mmHg 81%
    10:00 +7°C° 0 mm 3 mps 682 mmHg 77%
    11:00 +8°C° 0 mm 3 mps 681 mmHg 73%
    12:00 +8°C° 0 mm 3 mps 681 mmHg 69%
    13:00 +8°C° 0 mm 3 mps 680 mmHg 70%
    14:00 +8°C° 0 mm 2 mps 680 mmHg 72%
    15:00 +8°C° 0 mm 2 mps 680 mmHg 73%
    16:00 +8°C° 0.1 mm 2 mps 679 mmHg 78%
    17:00 +8°C° 0.1 mm 1 mps 679 mmHg 82%
    18:00 +7°C° 0.1 mm 1 mps 679 mmHg 87%
    19:00 +7°C° 0.5 mm 1 mps 679 mmHg 88%
    20:00 +7°C° 0.5 mm 1 mps 679 mmHg 89%
    21:00 +7°C° 0.5 mm 1 mps 679 mmHg 89%
    22:00 +7°C° 0.7 mm 1 mps 679 mmHg 90%
    23:00 +7°C° 0.7 mm 1 mps 679 mmHg 92%

    22 November, Thursday

    Time Temperature Precipitation Wind Pressure Humidity
    00:00 +6°C° 0.7 mm 1 mps 679 mmHg 93%
    01:00 +6°C° 0.5 mm 1 mps 679 mmHg 93%
    02:00 +6°C° 0.5 mm 1 mps 679 mmHg 93%
    03:00 +5°C° 0.5 mm 2 mps 679 mmHg 93%
    04:00 +6°C° 0.3 mm 1 mps 679 mmHg 93%
    05:00 +6°C° 0.3 mm 1 mps 679 mmHg 92%
    06:00 +6°C° 0.3 mm 1 mps 679 mmHg 92%
    07:00 +6°C° 0.1 mm 1 mps 680 mmHg 91%
    08:00 +6°C° 0.1 mm 1 mps 680 mmHg 89%
    09:00 +6°C° 0.1 mm 1 mps 680 mmHg 88%
    10:00 +7°C° 0 mm 1 mps 680 mmHg 85%
    11:00 +7°C° 0 mm 2 mps 680 mmHg 82%
    12:00 +7°C° 0 mm 2 mps 679 mmHg 79%
    13:00 +7°C° 0 mm 2 mps 679 mmHg 79%
    14:00 +7°C° 0 mm 2 mps 679 mmHg 78%
    15:00 +7°C° 0 mm 2 mps 679 mmHg 77%
    16:00 +8°C° 0.1 mm 1 mps 679 mmHg 81%
    17:00 +7°C° 0.1 mm 1 mps 680 mmHg 84%
    18:00 +6°C° 0.1 mm 1 mps 680 mmHg 88%
    19:00 +6°C° 0.1 mm 1 mps 680 mmHg 87%
    20:00 +6°C° 0.1 mm 1 mps 680 mmHg 87%
    21:00 +6°C° 0.1 mm 1 mps 681 mmHg 86%
    22:00 +6°C° 0 mm 1 mps 681 mmHg 87%
    23:00 +5°C° 0 mm 1 mps 681 mmHg 87%

    23 November, Friday

    Time Temperature Precipitation Wind Pressure Humidity
    00:00 +5°C° 0 mm 1 mps 681 mmHg 87%
    01:00 +5°C° 0 mm 1 mps 681 mmHg 88%
    02:00 +5°C° 0 mm 1 mps 681 mmHg 88%
    03:00 +5°C° 0 mm 1 mps 681 mmHg 88%
    04:00 +5°C° 0 mm 1 mps 681 mmHg 87%
    05:00 +4°C° 0 mm 1 mps 681 mmHg 86%
    06:00 +4°C° 0 mm 1 mps 681 mmHg 85%
    07:00 +5°C° 0 mm 1 mps 682 mmHg 81%
    08:00 +6°C° 0 mm 1 mps 682 mmHg 78%
    09:00 +6°C° 0 mm 1 mps 682 mmHg 75%
    10:00 +7°C° 0 mm 1 mps 682 mmHg 75%
    11:00 +7°C° 0 mm 2 mps 682 mmHg 75%
    12:00 +7°C° 0 mm 2 mps 682 mmHg 76%
    13:00 +7°C° 0 mm 2 mps 682 mmHg 77%
    14:00 +7°C° 0 mm 2 mps 683 mmHg 79%
    15:00 +7°C° 0 mm 3 mps 683 mmHg 81%
    16:00 +6°C° 0 mm 2 mps 683 mmHg 84%
    17:00 +5°C° 0 mm 2 mps 684 mmHg 86%
    18:00 +4°C° 0 mm 2 mps 685 mmHg 89%
    19:00 +4°C° 0 mm 2 mps 685 mmHg 88%
    20:00 +4°C° 0 mm 2 mps 686 mmHg 87%
    21:00 +3°C° 0 mm 2 mps 686 mmHg 86%
    22:00 +3°C° 0 mm 2 mps 687 mmHg 84%
    23:00 +4°C° 0 mm 1 mps 687 mmHg 81%

    24 November, Saturday

    Time Temperature Precipitation Wind Pressure Humidity
    00:00 +4°C° 0 mm 1 mps 687 mmHg 78%
    01:00 +3°C° 0 mm 1 mps 687 mmHg 77%
    02:00 +3°C° 0 mm 1 mps 687 mmHg 76%
    03:00 +3°C° 0 mm 1 mps 687 mmHg 76%
    04:00 +3°C° 0 mm 1 mps 688 mmHg 75%
    05:00 +3°C° 0 mm 1 mps 688 mmHg 74%
    06:00 +2°C° 0 mm 1 mps 688 mmHg 74%
    07:00 +2°C° 0 mm 2 mps 689 mmHg 72%
    08:00 +3°C° 0 mm 2 mps 689 mmHg 70%
    09:00 +4°C° 0 mm 2 mps 689 mmHg 68%
    10:00 +4°C° 0 mm 3 mps 689 mmHg 68%
    11:00 +5°C° 0 mm 4 mps 689 mmHg 68%
    12:00 +5°C° 0 mm 4 mps 689 mmHg 68%
    13:00 +5°C° 0 mm 4 mps 688 mmHg 69%
    14:00 +5°C° 0 mm 4 mps 688 mmHg 70%
    15:00 +5°C° 0 mm 4 mps 688 mmHg 70%
    16:00 +4°C° 0 mm 3 mps 688 mmHg 73%
    17:00 +2°C° 0 mm 3 mps 688 mmHg 75%
    18:00 +1°C° 0 mm 3 mps 688 mmHg 78%
    19:00 +1°C° 0 mm 3 mps 688 mmHg 77%
    20:00 +2°C° 0 mm 2 mps 688 mmHg 77%
    21:00 +2°C° 0 mm 2 mps 688 mmHg 76%
    22:00 +2°C° 0 mm 2 mps 688 mmHg 75%
    23:00 +2°C° 0 mm 2 mps 688 mmHg 75%
    Show more